THORAD AGENA D DEB, 4218

Orbit data source: Space-Track

THORAD AGENA D DEB, 4218 is space debris in LEO originally from a launch on Tue, 30 Sep 1969 UTC launched from the Air Force Western Test Range (AFWTR). Debris objects in space refer to the collection of defunct objects orbiting the Earth. Examples of debris include non-operational satellites, rocket bodies, and fragments generated from explosions, collisions, or faulty payload assembly.

Loading next visibility...
Identifier
4218, 1969-082CH
Orbit
LEO
Country
Flag of USUS
Related business
Manufacturer
Unknown
Mission
Spacecraft
Bus & Motor
Unknown
Mass
Unknown
Launch date (UTC)
1969-09-30 (57 years ago)
Launch vehicle
Unknown
Launch site
Air Force Western Test Range (AFWTR)
Object type
Payload
Rocket body
Debris
Shape & HBR
Unknown shape, 0.1 m
Radar Cross Section
Medium (>0.1 m² and <1 m²)

Expand to show TLE details & history
Last TLE update: 2 days ago

TLE from 2 days ago
0 THORAD AGENA D DEB
1  4218U 69082CH  26171.22813022  .00001430  00000-0  30406-3 0  9991
2  4218  70.0943 219.8087 0034115 287.4055  72.3356 14.60784511959286
Epoch: 2026-06-20T05:28Z
TLE epoch observation values (Epoch: 2026-06-20T05:28:30.451Z)
Latitude
0.00001°
Longitude
-130.76394°
Altitude
685.788 km
Speed
7.518 km/s
True Right ascension
14h 39m 14s
True Declination
0° 00' 00"
Sunlit
Object was in full shadow at epoch
Visualization orbit readout
Latitude
Unknown
Longitude
Unknown
Altitude
Unknown
Speed
Unknown
Apparent Right ascension
Unknown
Apparent Declination
Unknown
Sunlit
N/A
Visualization observer readout
Local Sidereal Time
03:46:38
Azimuth
Unknown
Elevation
Unknown
Doppler factor
Unknown
Orbital elements
Apogee altitude
712.723 km
Perigee altitude
664.507 km
Semi-major axis
7,066.752 km
Eccentricity
0.00341
Inclination
70.0943°
RAAN
219.8087°
Arg. of periapsis
287.4055°
True anomaly
72.70858°
Mean anomaly
72.3356°
Eccentric anomaly
72.52204°
Mean motion
3.65354 °/min
Orbital period
98.53 mins
BSTAR
0.00030406

Documentation

Showing up to 5 results
|